Location: Nachod
(50.4170°N, 16.1670°E)
Time: 22:02:21
(UTC+02:00)

ISS - Pass Details

Date: 28 March 2019
Orbit: 408 x 410 km, 51.6° (Epoch: 22 April)

Event Time Altitude Azimuth Distance (km) Brightness Sun altitude
Rises 20:55:37 0° 281° (W) 2,338 1.0 -23.5°
Reaches altitude 10° 20:57:42 10° 282° (WNW) 1,475 -0.1 -23.7°
Enters shadow 20:59:49 36° 289° (WNW) 667 -2.3 -24.0°
